Location: Hermaringen
(48.5952°N, 10.2585°E)
Time: 17:19:49
(UTC+00:00)

Injun/Solrad 3 - Pass Details

Date: 25 February 2026
Orbit: 872 x 984 km, 66.8° (Epoch: 6 March)

Event Time Altitude Azimuth Distance (km) Brightness Sun altitude
Rises 17:45:53 0° 323° (NW) 3,580 11.5 -8.9°
Reaches altitude 10° 17:48:24 10° 320° (NW) 2,650 10.8 -9.4°
Maximum altitude 17:54:30 64° 241° (WSW) 1,052 8.5 -10.4°
Drops below altitude 10° 18:00:44 10° 161° (SSE) 2,705 10.1 -11.4°
Sets 18:03:20 0° 159° (SSE) 3,659 10.8 -11.8°
